Weather Roundup
Issued by NWS Chicago, IL

Home | Current Version | Previous Version | Text Only | Print | Product List | Glossary Off
Versions: 1 2 3 4 5 6 7 8 9 10 11 12 13 14 15 16 17 18 19 20 21 22 23 24 25 26 27 28 29 30 31 32 33 34 35 36 37 38 39 40 41 42 43 44 45 46 47 48 49 50

000
NZUS59 KLOT 201610
HRRLOT

CHICAGO AREA WEATHER ROUNDUP
NATIONAL WEATHER SERVICE CHICAGO/ROMEOVILLE IL
1000 AM CST SAT DEC 20 2014

NOTE: "FAIR" INDICATES FEW OR NO CLOUDS BELOW 12,000 FEET WITH NO
SIGNIFICANT WEATHER AND/OR OBSTRUCTIONS TO VISIBILITY.

* THESE STATIONS ARE NOT UNDER NWS QUALITY CONTROL. THEY ALSO MAY NOT
  REPORT WEATHER SUCH AS PRECIPITATION OR FOG.

ILZ005-006-012>014-019>023-201700-
NORTHEAST ILLINOIS

CITY           SKY/WX    TMP DP  RH WIND       PRES   REMARKS
OHARE          CLOUDY    31  23  72 S6        30.28R WCI  25
MIDWAY         CLOUDY    33  26  75 S7        30.29S WCI  27
AURORA         CLOUDY    29  23  78 SE3       30.29R HAZE
LANSING*       CLOUDY    31  26  84 SW3       30.30R
JOLIET*        CLOUDY    31  26  82 CALM      30.30R HAZE
WAUKEGAN       CLOUDY    28  22  78 CALM      30.27S
DUPAGE AIRPORT CLOUDY    29  24  82 S3        30.28R
WHEELING       CLOUDY    30  24  78 CALM      30.30R
KANKAKEE*      CLOUDY    31  27  84 S5        30.31S WCI  27
MORRIS*        CLOUDY    30  27  89 S3        30.29R
LEWIS AIRPORT* CLOUDY    31  27  85 SW5       30.29S FOG     WCI  26
NORTHERLY IS     N/A     32  25  76 SW5         N/A  WCI  27
$$

WIZ051-052-058>065-066-070>072-201700-
SOUTHEAST WISCONSIN

CITY           SKY/WX    TMP DP  RH WIND       PRES   REMARKS
MILWAUKEE      CLOUDY    29  19  66 VRB3      30.27F
KENOSHA*       CLOUDY    29  22  75 CALM      30.27S
RACINE*        CLOUDY    28  20  71 CALM      30.29S
BURLINGTON     CLOUDY    26  21  82 CALM      30.27S
WAUKESHA       CLOUDY    27  19  74 CALM      30.27S
WEST BEND      CLOUDY    28  21  74 CALM      30.26R
$$

INZ001>003-010>013-019-020-201700-
NORTHWEST INDIANA

CITY           SKY/WX    TMP DP  RH WIND       PRES   REMARKS
GARY*          CLOUDY    32  23  69 CALM      30.30S
MICHIGAN CITY* NOT AVBL
RENSSELAER*    NOT AVBL
VALPARAISO     CLOUDY    31  24  75 SW6       30.30R WCI  25
$$

LMZ740>746-201700-
SOUTHERN LAKE MICHIGAN

STATION/POSITION TIME  SKY/WX   TEMP WIND        PRES    VSBY
                                AIR  DIR/SP/G
                 (UTC)          (F)  (DEG/KT/KT) (MB)    (MI)
HARRISON CRIB    1600            31  200/  8/ 10   N/A
BURNHAM HARBOR   1600            32  190/  4/  6   N/A
CALUMET HARBOR   1600            31  200/  4/  5 1024.5S
BURNS HARBOR     NOT AVBL
MICHIGAN CITY    NOT AVBL
$$

ABBREVIATIONS USED IN REMARKS
   TC - TEMPERATURE IN CELSIUS
  WCI - WIND CHILL INDEX
   HX - HEAT INDEX
  VSB - VISIBILITY
$$


USA.gov is the U.S. government's official web portal to all federal, state and local government web resources and services.